Regional Weather Roundup
Issued by NWS

Home | Current Version | Previous Version | Text Only | Print | Product List | Glossary On
Versions: 1 2 3 4 5 6 7 8 9 10 11 12 13 14 15 16 17 18 19 20 21 22 23 24 25 26 27 28 29 30 31 32 33 34 35 36 37 38 39 40 41 42 43 44 45 46 47 48 49 50
240
ASUS43 KMKX 112210
RWRWI

WISCONSIN REGIONAL WEATHER ROUNDUP
NATIONAL WEATHER SERVICE MILWAUKEE/SULLIVAN WI
400 PM CST THU FEB 11 2016

NOTE: "FAIR" INDICATES FEW OR NO CLOUDS BELOW 12,000 FEET WITH NO
SIGNIFICANT WEATHER AND/OR OBSTRUCTIONS TO VISIBILITY.

WIZ001-002-006>008-014>016-023>028-112300-
NORTHWEST WISCONSIN

CITY           SKY/WX    TMP DP  RH WIND       PRES   REMARKS
SUPERIOR ARPT  CLOUDY    16  -4  40 W10       30.18F WCI   4
ASHLAND        CLOUDY    14  -4  44 SW9       30.16F WCI   2
HAYWARD        CLOUDY    13  -7  40 W7        30.15F WCI   3
SIREN          CLOUDY    14  -3  45 SW9       30.20F WCI   2
CUMBERLAND     CLOUDY    14  -4  44 SW12      30.17S WCI   0
RICE LAKE      CLOUDY    15  -4  44 SW6       30.21S WCI   6
CHETEK         CLOUDY    14  -5  42 CALM      30.20S
LADYSMITH      CLOUDY    15  -6  39 SW8       30.18S WCI   4
EAU CLAIRE     CLOUDY    14  -3  47 SW3       30.21F
MENOMONIE      CLOUDY    19  -3  38 S5        30.22F WCI  12
NEW RICHMOND   CLOUDY    16  -1  48 SW10      30.21S WCI   3
OSCEOLA        CLOUDY    17   1  49 W6        30.25S WCI   8
$$

WIZ003>005-009-010-017-018-112300-
NORTH CENTRAL WISCONSIN

CITY           SKY/WX    TMP DP  RH WIND       PRES   REMARKS
MANITOWISH WTR CLOUDY    13  -4  46 SW8       30.08F WCI   2
ARBOR VITAE    MOSUNNY   17  -1  45 SW5       30.10S WCI  10
WOODRUFF       MOSUNNY   17  -1  45 SW5       30.10S WCI  10
RHINELANDER    PTSUNNY   14  -7  38 W12       30.10F WCI   0
EAGLE RIVER    SUNNY     14  -6  39 W10       30.09R WCI   2
LAND O LAKES   MOSUNNY   15  -1  50 W5        30.08F WCI   7
PHILLIPS       CLOUDY    13  -3  48 SW8       30.11F WCI   2
TOMAHAWK       CLOUDY    15  -6  38 W8        30.13S WCI   4
MEDFORD        CLOUDY    11  -3  52 SW9       30.15S WCI  -1
MERRILL        PTSUNNY   15  -2  46 SW8       30.15S WCI   4
$$

WIZ029-030-035-036-043>047-112300-
CENTRAL WISCONSIN

CITY           SKY/WX    TMP DP  RH WIND       PRES   REMARKS
WAUSAU         SUNNY     14  -5  42 W8        30.16F WCI   3
MOSINEE        SUNNY     12  -2  52 W7        30.18S WCI   2
MARSHFIELD     PTSUNNY   15  -5  40 W6        30.17F WCI   6
STEVENS POINT  SUNNY     14  -5  42 W7        30.20S WCI   3
WAUPACA        SUNNY     21  -4  33 W9        30.22R WCI  10
WAUTOMA        SUNNY     19  -4  36 W8        30.23S WCI   9
WISC RAPIDS    MOSUNNY   17  -6  35 W12       30.22S WCI   4
CAMP DOUGLAS   MOSUNNY   18  -2  41 SW8       30.22S WCI   7
$$

WIZ011>013-019>022-031-037>040-048>050-112300-
NORTHEAST WISCONSIN

CITY           SKY/WX    TMP DP  RH WIND       PRES   REMARKS
ANTIGO         PTSUNNY   15  -3  44 W10       30.12S WCI   2
SHAWANO        SUNNY     21  -2  36 SW6       30.20R WCI  14
OCONTO         SUNNY     19   0  44 W10G16    30.19S WCI   7
STURGEON BAY   SUNNY     16   0  48 SW9       30.20S WCI   4
GREEN BAY      SUNNY     17  -1  45 W12       30.21S WCI   4
MANITOWOC      SUNNY     17   3  54 W12G20    30.23S WCI   4
APPLETON       MOSUNNY   18  -4  38 W12       30.19F WCI   5
CLINTONVILLE   SUNNY     19  -4  35 W8        30.20S WCI   9
OSHKOSH        SUNNY     17  -1  45 VRB5      30.22S WCI  10
$$

WIZ032>034-041-042-053>061-112300-
SOUTHWEST WISCONSIN

CITY           SKY/WX    TMP DP  RH WIND       PRES   REMARKS
LA CROSSE      CLOUDY    18   0  45 S9        30.25F WCI   7
SPARTA         SUNNY     19  -4  37 W6        30.25S WCI  10
VIROQUA        SUNNY     17  -3  42 SW5       30.21F WCI  10
BOSCOBEL       CLOUDY    20   1  43 SW7       30.27F WCI  11
PRAIRIE DU CHI CLOUDY    19  -3  37 W6        30.28S WCI  11
PLATTEVILLE    PTSUNNY   18  -1  43 CALM      30.25F
$$

WIZ056-057-062-063-064-067-068-112300-
SOUTH CENTRAL WISCONSIN

CITY           SKY/WX    TMP DP  RH WIND       PRES   REMARKS
REEDSBURG      SUNNY     18  -4  37 W9        30.24S WCI   7
BARABOO/DELLS  SUNNY     18  -6  35 SW9       30.23S WCI   6
LONE ROCK      PTSUNNY   20  -3  36 W5        30.26F WCI  13
MINERAL POINT  CLOUDY    18   1  49 W5        30.23F WCI  11
MADISON        MOSUNNY   18  -5  36 VRB5      30.25S WCI  11
MIDDLETON      SUNNY     22  -3  34 W5        30.25S WCI  15
WATERTOWN      SUNNY     18  -1  43 W7        30.25S WCI   8
MONROE         MOSUNNY   21   0  39 W8        30.24S WCI  12
JANESVILLE     MOSUNNY   21   1  42 W6        30.26F WCI  14
$$

WIZ051-052-058>065-066-070>072-112300-
SOUTHEAST WISCONSIN

CITY           SKY/WX    TMP DP  RH WIND       PRES   REMARKS
MILWAUKEE      MOSUNNY   19  -2  39 W9        30.27R WCI   8
WAUKESHA       SUNNY     16   0  48 W10       30.26S WCI   3
MILWAUKEE/TIMM SUNNY     18  -2  41 W9        30.26F WCI   6
RACINE         SUNNY     19  -1  41 W9        30.28S WCI   8
BURLINGTON     SUNNY     17   0  45 W8        30.26S WCI   7
KENOSHA        SUNNY     19   3  49 W7        30.26S WCI  10
FOND DU LAC    SUNNY     16  -1  47 SW10      30.23S WCI   4
SHEBOYGAN      SUNNY     16   1  51 W9        30.23S WCI   4
WEST BEND      SUNNY     18   0  45 CALM      30.23S
JUNEAU         SUNNY     15   1  52 SW9       30.25S WCI   3
$$

LSZ147-162-112300-
LAKE SUPERIOR

STATION/POSITION TIME  TEMP    WIND        PRES    WAVE
                       AIR SEA DIR/SP/G            HT/PER
                 (UTC) (F)     (DEG/KT/KT) (MB)    (FT/S)
DEVILS ISLAND    2200   15     240/ 20/ 24 1021.9F
SAXON HARBOR     2040   16                 1021.3F
$$

LMZ867-665-643>646-112300-
LAKE MICHIGAN

STATION/POSITION TIME  TEMP    WIND        PRES    WAVE
                       AIR SEA DIR/SP/G            HT/PER
                 (UTC) (F)     (DEG/KT/KT) (MB)    (FT/S)
CHAMBERS ISLAND  2100   17     180/  9/ 13 1022.0F
ALGOMA LAKESHORE 2041          250/  7/ 12   N/A
KEWAUNEE LAKESHO 2100   15     280/ 11/ 14 1022.3F
SHEBOYGAN LAKESH 2200   17     270/  8/  9 1025.5F
PORT WASHINGTON  2140   19     250/  7/ 13 1025.4S
MILWAUKEE LAKESH 2110   18     310/  8/ 12   N/A
KENOSHA   LAKESH 2200   20     280/  7/ 12 1025.1S
$$

TC  - TEMPERATURE IN CELSIUS
VSB - VISIBILITY IN STATUTE MILES
WCI - WIND CHILL INDEX
HX  - HEAT INDEX





USA.gov is the U.S. government's official web portal to all federal, state and local government web resources and services.